Weather History for Pueblo, CO

Change the Weather History Date:

Thursday, March 27, 2014

  Actual Average Record
Temperature  
Mean Temperature 54 °F 45 °F  
Max Temperature 66 °F 62 °F 85 °F (1988)
Min Temperature 41 °F 29 °F -1 °F (1899)
Degree Days  
Heating Degree Days 11 20  
Month to date heating degree days 613 624  
Since 1 July heating degree days 4818 4927  
Cooling Degree Days 0 0  
Month to date cooling degree days 0 0  
Year to date cooling degree days 0 0  
Growing Degree Days 4 (Base 50)    
Moisture  
Dew Point 18 °F    
Average Humidity 31    
Maximum Humidity 53    
Minimum Humidity 9    
Precipitation  
Precipitation 0.00 in 0.03 in 0.48 in (1998)
Month to date precipitation 0.76 0.79  
Year to date precipitation 1.49 1.44  
Snow  
Snow 0.00 in 0.20 in 3.60 in (2009)
Month to date snowfall 2.4 4.9  
Since 1 July snowfall 21.0 26.7  
Snow Depth 0.00 in    
Sea Level Pressure  
Sea Level Pressure 29.51 in    
Wind  
Wind Speed 14 mph (WNW)    
Max Wind Speed 32 mph    
Max Gust Speed 46 mph    
Visibility 10 miles    
Events      
T = Trace of Precipitation, MM = Missing Value Source: NWS Daily Summary

Daily Weather History Graph

Daily Weather History Graph

Search for Another Location

Airport:

Trip Planner

Search our weather history database for the weather conditions in past years. The results will help you decide how hot, cold, wet, or windy it might be!

Date:

Astronomy

Mar. 27, 2014 Rise Set
Actual Time 6:50 AM MDT 7:16 PM MDT
Civil Twilight 6:24 AM MDT 7:43 PM MDT
Nautical Twilight 5:53 AM MDT 8:14 PM MDT
Astronomical Twilight 5:21 AM MDT 8:46 PM MDT
Moon 4:40 AM MDT (3/27) 4:09 PM MDT (3/27)
Length of Visible Light 13h 18m
Length of Day
12h 26m
Waning Crescent, 12% of the Moon is Illuminated
Mar 27
Waning Crescent
Mar 30
New
Apr 7
First Quarter
Apr 15
Full
Apr 22
Last Quarter

Hourly Weather History & Observations

Time (MDT) Temp. Windchill Dew Point Humidity Pressure Visibility Wind Dir Wind Speed Gust Speed Precip Events Conditions
12:53 AM 48.9 °F - 27.0 °F 43% 29.26 in 10.0 mi Calm Calm - N/A   Clear
1:53 AM 48.0 °F - 27.0 °F 44% 29.28 in 10.0 mi WNW 9.2 mph - N/A   Clear
2:53 AM 46.0 °F 40.6 °F 26.1 °F 46% 29.29 in 10.0 mi NW 11.5 mph - N/A   Clear
3:53 AM 42.1 °F 35.7 °F 25.0 °F 51% 29.30 in 10.0 mi WNW 11.5 mph - N/A   Clear
4:53 AM 50.0 °F - 24.1 °F 36% 29.30 in 10.0 mi WNW 21.9 mph - N/A   Clear
5:53 AM 48.9 °F - 24.1 °F 38% 29.35 in 10.0 mi WNW 16.1 mph - N/A   Clear
6:53 AM 46.0 °F 43.1 °F 25.0 °F 44% 29.43 in 10.0 mi North 5.8 mph - N/A   Clear
7:53 AM 43.0 °F 38.2 °F 27.0 °F 53% 29.47 in 10.0 mi NNE 8.1 mph - N/A   Partly Cloudy
8:53 AM 53.1 °F - 24.1 °F 32% 29.48 in 10.0 mi WNW 15.0 mph - N/A   Clear
9:53 AM 57.0 °F - 21.0 °F 25% 29.53 in 10.0 mi West 20.7 mph - N/A   Mostly Cloudy
10:53 AM 59.0 °F - 19.0 °F 21% 29.52 in 10.0 mi West 18.4 mph 25.3 mph N/A   Clear
11:53 AM 61.0 °F - 15.1 °F 17% 29.52 in 10.0 mi West 24.2 mph 32.2 mph N/A   Clear
12:53 PM 60.1 °F - 10.0 °F 14% 29.52 in 10.0 mi WNW 12.7 mph 27.6 mph N/A   Partly Cloudy
1:53 PM 64.0 °F - 8.1 °F 11% 29.51 in 10.0 mi NW 18.4 mph 27.6 mph N/A   Mostly Cloudy
2:53 PM 64.0 °F - 3.0 °F 9% 29.52 in 10.0 mi West 19.6 mph 38.0 mph N/A   Clear
3:53 PM 62.1 °F - 10.9 °F 13% 29.56 in 10.0 mi NNW 24.2 mph 32.2 mph N/A   Clear
4:51 PM 62.6 °F - 6.8 °F 11% 29.64 in 10.0 mi WNW 11.5 mph - N/A   Clear
4:53 PM 62.1 °F - 7.0 °F 11% 29.54 in 10.0 mi WNW 15.0 mph 21.9 mph N/A   Clear
5:53 PM 61.0 °F - 6.1 °F 11% 29.57 in 10.0 mi West 12.7 mph - N/A   Clear
6:53 PM 57.9 °F - 10.0 °F 15% 29.60 in 10.0 mi WSW 6.9 mph - N/A   Clear
7:53 PM 52.0 °F - 26.1 °F 37% 29.69 in 10.0 mi ESE 5.8 mph - N/A   Partly Cloudy
8:53 PM 51.1 °F - 26.1 °F 38% 29.71 in 10.0 mi SSE 9.2 mph - N/A   Overcast
9:53 PM 51.1 °F - 17.1 °F 26% 29.71 in 10.0 mi WNW 17.3 mph - N/A   Clear
10:53 PM 45.0 °F 40.1 °F 17.1 °F 33% 29.72 in 10.0 mi WNW 9.2 mph - N/A   Clear
11:53 PM 41.0 °F 34.3 °F 18.0 °F 40% 29.71 in 10.0 mi WNW 11.5 mph - N/A   Clear